User: anonymous
Location: Radomski Observatory
(40.2854°N, 79.5145°W)
Time: 19:55:34
(UTC-04:00)
Language:

Uosat F - Orbit

View from above orbital plane
View from above orbital plane
View from above satellite
View from above satellite

Ground track
Ground track

The orbit data is extracted from the following two-line orbital elements,

1 21575U 91050B   14114.84994799  .00000320  00000-0  11517-3 0  9954
2 21575 098.6941 090.2082 0008503 119.2626 298.3697 14.40359401195801
Epoch (UTC): 24 April 2014 20:23:55
Eccentricity: 0.0008503
inclination: 98.6941°
perigee height: 751 km
apogee height: 763 km
right ascension of ascending node: 90.2082°
argument of perigee: 119.2626°
revolutions per day: 14.40359401
mean anomaly at epoch: 298.3697°
orbit number at epoch: 19580

The dashed part of the orbit path shows where the satellite is in the earth's shadow,  

DLR